{"data":{"norad_id":63514,"epoch":"2026-09-20T09:47:36.953376Z","epoch_age_seconds":163633,"freshness":"FRESH","line1":"1 63514U 25071X   26263.40806659  .00015837  00000+0  47876-3 0  9999","line2":"2 63514  53.1590 313.9152 0000840  51.6288 308.4790 15.34405655 82223","mean_motion":15.34405655,"eccentricity":8.4e-5,"inclination_deg":53.159,"raan_deg":313.9152,"arg_perigee_deg":51.6288,"mean_anomaly_deg":308.479,"bstar":0.00047876,"rev_number":8222,"period_min":93.847412208605,"perigee_km":462.11180323867,"apogee_km":463.26106157531,"semimajor_km":6840.823432407,"source":"CELESTRAK","updated_at":"2026-09-21T09:00:35.017545Z"}}